timestamp,surface_pressure_avg,surface_temp_avg,battery_voltage,lat,long
2017-12-10 00:00:00+00:00,223.1064,5.3,12.41,47.84626,-54.09684
2017-12-10 00:10:00+00:00,209.4931,5.23,12.41,47.84626,-54.09684
2017-12-10 00:20:00+00:00,207.5497,5.09,12.49,47.84626,-54.09684
2017-12-10 00:30:00+00:00,224.8065,5.1,12.49,47.84626,-54.09684
2017-12-10 00:40:00+00:00,227.5264,5.2,12.49,47.84626,-54.09684
2017-12-10 00:50:00+00:00,218.5064,5.2,12.49,47.84626,-54.09684
2017-12-10 01:00:00+00:00,222.9431,5.2,12.41,47.84626,-54.09684
2017-12-10 01:10:00+00:00,229.0015,5.2,12.41,47.84626,-54.09684
2017-12-10 01:20:00+00:00,230.4865,5.2,12.49,47.84626,-54.09684
2017-12-10 01:30:00+00:00,239.4431,5.2,12.49,47.84626,-54.09684
2017-12-10 01:40:00+00:00,249.0731,5.29,12.49,47.84626,-54.09684
2017-12-10 01:50:00+00:00,253.6581,5.1,12.49,47.84626,-54.09684
2017-12-10 02:00:00+00:00,259.3347,4.98,12.41,47.84626,-54.09684
2017-12-10 02:10:00+00:00,272.7297,4.99,12.41,47.84626,-54.09684
2017-12-10 02:20:00+00:00,279.9431,5.18,12.49,47.84626,-54.09684
2017-12-10 02:30:00+00:00,278.7365,5.14,12.49,47.84626,-54.09684
2017-12-10 02:40:00+00:00,288.393,5.3,12.49,47.84626,-54.09684
2017-12-10 02:50:00+00:00,301.0964,5.4,12.49,47.84626,-54.09684
2017-12-10 03:00:00+00:00,297.3264,4.97,12.41,47.84626,-54.09684
2017-12-10 03:10:00+00:00,298.283,5.34,12.41,47.84626,-54.09684
2017-12-10 03:20:00+00:00,317.8346,5.4,12.49,47.84626,-54.09684
2017-12-10 03:30:00+00:00,321.6763,5.4,12.49,47.84626,-54.09684
2017-12-10 03:40:00+00:00,309.0746,5.2,12.49,47.84626,-54.09684
2017-12-10 03:50:00+00:00,313.553,5.22,12.49,47.84626,-54.09684
2017-12-10 04:00:00+00:00,320.5964,5.3,12.41,47.84626,-54.09684
2017-12-10 04:10:00+00:00,315.1497,5.3,12.41,47.84626,-54.09684
2017-12-10 04:20:00+00:00,311.9313,5.21,12.49,47.84626,-54.09684
2017-12-10 04:30:00+00:00,322.6497,5.25,12.49,47.84626,-54.09684
2017-12-10 04:40:00+00:00,333.188,5.3,12.49,47.84626,-54.09684
2017-12-10 04:50:00+00:00,331.5197,5.2,12.49,47.84626,-54.09684
2017-12-10 05:00:00+00:00,328.7763,5.2,12.41,47.84626,-54.09684
2017-12-10 05:10:00+00:00,334.4313,5.23,12.41,47.84626,-54.09684
2017-12-10 05:20:00+00:00,335.073,5.29,12.49,47.84626,-54.09684
2017-12-10 05:30:00+00:00,338.5663,5.26,12.49,47.84626,-54.09684
2017-12-10 05:40:00+00:00,344.9696,5.2,12.49,47.84626,-54.09684
2017-12-10 05:50:00+00:00,337.3846,5.0,12.49,47.84626,-54.09684
2017-12-10 06:00:00+00:00,323.8563,5.01,12.41,47.84626,-54.09684
2017-12-10 06:10:00+00:00,330.6279,5.1,12.41,47.84626,-54.09684
2017-12-10 06:20:00+00:00,339.178,5.09,12.49,47.84626,-54.09684
2017-12-10 06:30:00+00:00,331.6496,5.0,12.49,47.84626,-54.09684
2017-12-10 06:40:00+00:00,325.588,5.0,12.49,47.84626,-54.09684
2017-12-10 06:50:00+00:00,324.3714,5.0,12.49,47.84626,-54.09684
2017-12-10 07:00:00+00:00,314.563,4.9,12.41,47.84626,-54.09684
2017-12-10 07:10:00+00:00,300.4764,4.99,12.41,47.84626,-54.09684
2017-12-10 07:20:00+00:00,300.3713,5.0,12.49,47.84626,-54.09684
2017-12-10 07:30:00+00:00,303.3497,5.01,12.49,47.84626,-54.09684
2017-12-10 07:40:00+00:00,292.993,5.0,12.49,47.84626,-54.09684
2017-12-10 07:50:00+00:00,274.0514,5.01,12.49,47.84626,-54.09684
2017-12-10 08:00:00+00:00,267.7981,5.01,12.41,47.84626,-54.09684
2017-12-10 08:10:00+00:00,271.5914,5.0,12.41,47.84626,-54.09684
2017-12-10 08:20:00+00:00,267.3314,4.7,12.49,47.84626,-54.09684
2017-12-10 08:30:00+00:00,255.4897,4.59,12.49,47.84626,-54.09684
2017-12-10 08:40:00+00:00,256.4664,4.5,12.49,47.84626,-54.09684
2017-12-10 08:50:00+00:00,259.4747,4.5,12.49,47.84626,-54.09684
2017-12-10 09:00:00+00:00,250.6381,4.4,12.41,47.84626,-54.09684
2017-12-10 09:10:00+00:00,235.4181,4.4,12.41,47.84626,-54.09684
2017-12-10 09:20:00+00:00,242.1814,4.4,12.49,47.84626,-54.09684
2017-12-10 09:30:00+00:00,257.1597,4.43,12.49,47.84626,-54.09684
2017-12-10 09:40:00+00:00,248.0714,4.4,12.49,47.84626,-54.09684
2017-12-10 09:50:00+00:00,231.6081,4.42,12.49,47.84626,-54.09684
2017-12-10 10:00:00+00:00,236.1931,4.54,12.41,47.84626,-54.09684
2017-12-10 10:10:00+00:00,236.9381,4.6,12.41,47.84626,-54.09684
2017-12-10 10:20:00+00:00,226.6548,4.6,12.49,47.84626,-54.09684
2017-12-10 10:30:00+00:00,225.1948,4.66,12.49,47.84626,-54.09684
2017-12-10 10:40:00+00:00,233.6714,4.78,12.49,47.84626,-54.09684
2017-12-10 10:50:00+00:00,231.7697,4.9,12.49,47.84626,-54.09684
2017-12-10 11:00:00+00:00,224.3114,4.88,12.41,47.84626,-54.09684
2017-12-10 11:10:00+00:00,230.5198,4.8,12.41,47.84626,-54.09684
2017-12-10 11:20:00+00:00,248.7564,4.8,12.49,47.84626,-54.09684
2017-12-10 11:30:00+00:00,250.7798,4.85,12.49,47.84626,-54.09684
2017-12-10 11:40:00+00:00,240.2798,4.7,12.49,47.84626,-54.09684
2017-12-10 11:50:00+00:00,237.5214,4.7,12.49,47.84626,-54.09684
2017-12-10 12:00:00+00:00,245.3381,4.69,12.41,47.84626,-54.09684
2017-12-10 12:10:00+00:00,244.9814,4.7,12.41,47.84626,-54.09684
2017-12-10 12:20:00+00:00,235.0931,4.69,12.49,47.84626,-54.09684
2017-12-10 12:30:00+00:00,246.1198,4.94,12.49,47.84626,-54.09684
2017-12-10 12:40:00+00:00,257.6747,5.05,12.49,47.84626,-54.09684
2017-12-10 12:50:00+00:00,248.8781,4.89,12.49,47.84626,-54.09684
2017-12-10 13:00:00+00:00,241.5414,4.72,12.41,47.84626,-54.09684
2017-12-10 13:10:00+00:00,262.9114,5.0,12.41,47.84626,-54.09684
2017-12-10 13:20:00+00:00,272.1181,5.0,12.49,47.84626,-54.09684
2017-12-10 13:30:00+00:00,264.2597,4.7,12.49,47.84626,-54.09684
2017-12-10 13:40:00+00:00,266.3914,5.0,12.49,47.84626,-54.09684
2017-12-10 13:50:00+00:00,279.4347,5.1,12.49,47.84626,-54.09684
2017-12-10 14:00:00+00:00,278.0297,5.1,12.41,47.84626,-54.09684
2017-12-10 14:10:00+00:00,283.0014,5.07,12.41,47.84626,-54.09684
2017-12-10 14:20:00+00:00,294.6447,5.1,12.49,47.84626,-54.09684
2017-12-10 14:30:00+00:00,302.4831,5.16,12.49,47.84626,-54.09684
2017-12-10 14:40:00+00:00,299.3914,5.19,12.49,47.84626,-54.09684
2017-12-10 14:50:00+00:00,310.9264,5.2,12.49,47.84626,-54.09684
2017-12-10 15:00:00+00:00,318.9529,5.2,12.41,47.84626,-54.09684
2017-12-10 15:10:00+00:00,320.923,5.2,12.41,47.84626,-54.09684
2017-12-10 15:20:00+00:00,320.8597,5.2,12.49,47.84626,-54.09684
2017-12-10 15:30:00+00:00,326.758,5.25,12.49,47.84626,-54.09684
2017-12-10 15:40:00+00:00,328.8096,5.3,12.49,47.84626,-54.09684
2017-12-10 15:50:00+00:00,326.583,5.31,12.49,47.84626,-54.09684
2017-12-10 16:00:00+00:00,327.1497,5.34,12.41,47.84626,-54.09684
2017-12-10 16:10:00+00:00,336.1146,5.36,12.41,47.84626,-54.09684
2017-12-10 16:20:00+00:00,335.6413,5.4,12.49,47.84626,-54.09684
2017-12-10 16:30:00+00:00,332.193,5.45,12.49,47.84626,-54.09684
2017-12-10 16:40:00+00:00,339.9263,5.42,12.49,47.84626,-54.09684
2017-12-10 16:50:00+00:00,355.2697,5.46,12.49,47.84626,-54.09684
2017-12-10 17:00:00+00:00,358.8596,5.5,12.49,47.84626,-54.09684
2017-12-10 17:10:00+00:00,362.0963,5.53,12.41,47.84626,-54.09684
2017-12-10 17:20:00+00:00,355.183,5.54,12.49,47.84626,-54.09684
2017-12-10 17:30:00+00:00,348.1179,5.56,12.49,47.84626,-54.09684
2017-12-10 17:40:00+00:00,348.8214,5.53,12.49,47.84626,-54.09684
2017-12-10 17:50:00+00:00,349.0262,5.5,12.49,47.84626,-54.09684
2017-12-10 18:00:00+00:00,342.9929,5.5,12.41,47.84626,-54.09684
2017-12-10 18:10:00+00:00,336.6446,5.5,12.41,47.84626,-54.09684
2017-12-10 18:20:00+00:00,337.8063,5.5,12.49,47.84626,-54.09684
2017-12-10 18:30:00+00:00,340.6013,5.5,12.49,47.84626,-54.09684
2017-12-10 18:40:00+00:00,325.7013,5.49,12.49,47.84626,-54.09684
2017-12-10 18:50:00+00:00,309.8864,5.48,12.49,47.84626,-54.09684
2017-12-10 19:00:00+00:00,319.1696,5.49,12.41,47.84626,-54.09684
2017-12-10 19:10:00+00:00,324.7646,5.49,12.41,47.84626,-54.09684
2017-12-10 19:20:00+00:00,312.9664,5.47,12.49,47.84626,-54.09684
2017-12-10 19:30:00+00:00,300.7397,5.48,12.49,47.84626,-54.09684
2017-12-10 19:40:00+00:00,314.9363,5.48,12.49,47.84626,-54.09684
2017-12-10 19:50:00+00:00,307.8464,5.46,12.49,47.84626,-54.09684
2017-12-10 20:00:00+00:00,282.863,5.44,12.49,47.84626,-54.09684
2017-12-10 20:10:00+00:00,277.4913,5.45,12.49,47.84626,-54.09684
2017-12-10 20:20:00+00:00,281.5381,5.46,12.49,47.84626,-54.09684
2017-12-10 20:30:00+00:00,260.7114,5.46,12.49,47.84626,-54.09684
2017-12-10 20:40:00+00:00,241.3564,5.49,12.49,47.84626,-54.09684
2017-12-10 20:50:00+00:00,239.4781,5.48,12.49,47.84626,-54.09684
2017-12-10 21:00:00+00:00,243.5898,5.48,12.49,47.84626,-54.09684
2017-12-10 21:10:00+00:00,235.8547,5.47,12.41,47.84626,-54.09684
2017-12-10 21:20:00+00:00,235.6464,5.47,12.49,47.84626,-54.09684
2017-12-10 21:30:00+00:00,238.1048,5.47,12.49,47.84626,-54.09684
2017-12-10 21:40:00+00:00,233.3914,5.47,12.49,47.84626,-54.09684
2017-12-10 21:50:00+00:00,227.1598,5.48,12.49,47.84626,-54.09684
2017-12-10 22:00:00+00:00,232.1931,5.5,12.41,47.84626,-54.09684
2017-12-10 22:10:00+00:00,240.2564,5.5,12.41,47.84626,-54.09684
2017-12-10 22:20:00+00:00,230.8547,5.5,12.49,47.84626,-54.09684
2017-12-10 22:30:00+00:00,219.7348,5.5,12.49,47.84626,-54.09684
2017-12-10 22:40:00+00:00,231.1764,5.5,12.49,47.84626,-54.09684
2017-12-10 22:50:00+00:00,232.5264,5.5,12.49,47.84626,-54.09684
2017-12-10 23:00:00+00:00,223.2482,5.5,12.41,47.84626,-54.09684
2017-12-10 23:10:00+00:00,221.5331,5.5,12.41,47.84626,-54.09684
2017-12-10 23:20:00+00:00,232.6264,5.5,12.49,47.84626,-54.09684
2017-12-10 23:30:00+00:00,224.7781,5.5,12.49,47.84626,-54.09684
2017-12-10 23:40:00+00:00,221.1614,5.5,12.49,47.84626,-54.09684
2017-12-10 23:50:00+00:00,227.5714,5.5,12.49,47.84626,-54.09684
